Total_Precipitation_Accumulation
0.17 0.25 0.32 0.33 0.28 0.22 0.19 0.22 0.35 0.34 0.41 0.53 0.69 0.71 0.88 0.95 0.89 0.83 0.76 0.72 0.79 0.94 0.96 0.97 1.04 1.05 1.14 1.17 1.40 1.45 1.53 1.62 1.70 1.63 1.61 1.56 1.50 1.46 1.51 1.59 1.56 1.75 1.98 2.08
0.16 0.19 0.24 0.26 0.26 0.19 0.15 0.13 0.16 0.29 0.53 0.56 0.61 0.67 0.81 0.82 0.80 0.81 0.88 0.91 0.94 1.00 1.08 0.99 0.94 0.88 0.83 0.93 1.16 1.34 1.48 1.41 1.42 1.47 1.40 1.35 1.37 1.36 1.41 1.50 1.61 1.78 1.84 1.86
0.26 0.22 0.28 0.32 0.27 0.20 0.15 0.14 0.15 0.33 0.60 0.61 0.64 0.72 0.84 0.91 0.92 0.81 0.81 0.87 0.99 1.05 1.06 0.91 0.87 0.84 0.87 0.93 1.06 1.19 1.30 1.38 1.45 1.49 1.43 1.37 1.41 1.53 1.54 1.67 1.72 1.71 1.65 1.67
0.38 0.45 0.59 0.40 0.27 0.22 0.23 0.21 0.23 0.29 0.39 0.48 0.64 0.69 0.71 0.78 0.92 0.93 0.95 1.02 1.07 1.04 0.99 0.94 0.91 0.96 1.00 0.99 1.07 1.19 1.22 1.32 1.44 1.47 1.42 1.43 1.43 1.49 1.60 1.77 1.83 1.74 1.57 1.57
0.52 0.62 0.53 0.44 0.38 0.35 0.39 0.40 0.37 0.46 0.46 0.52 0.59 0.67 0.83 0.72 0.78 0.80 0.96 1.01 1.06 1.08 1.10 1.10 1.06 1.12 1.15 1.11 1.15 1.27 1.38 1.46 1.43 1.48 1.54 1.59 1.62 1.66 1.72 1.76 1.77 1.83 1.73 1.65
0.68 0.82 0.82 0.68 0.57 0.51 0.53 0.87 0.67 0.63 0.66 0.75 0.80 0.94 1.13 0.93 0.84 0.91 0.98 0.96 1.00 0.99 1.06 1.17 1.18 1.29 1.33 1.34 1.35 1.42 1.53 1.63 1.67 1.76 1.85 1.82 1.94 2.06 2.08 2.06 2.01 2.07 1.95 1.87
0.89 1.01 1.00 0.79 0.67 0.64 1.07 1.28 0.84 0.76 0.81 0.82 0.87 0.99 1.03 1.04 1.05 1.02 0.85 0.82 0.88 0.97 0.98 1.09 1.27 1.47 1.61 1.59 1.52 1.61 1.74 1.89 2.04 2.15 2.33 2.48 2.56 2.46 2.37 2.36 2.37 2.21 2.06 2.04
1.24 1.42 1.34 0.85 0.80 1.15 1.40 1.08 1.08 0.97 0.91 0.92 0.86 0.94 1.02 1.03 1.00 0.88 0.86 0.85 0.91 1.04 1.04 1.09 1.27 1.46 1.64 1.67 1.69 1.85 2.01 2.20 2.33 2.52 2.62 2.71 3.07 3.10 3.08 3.01 2.74 2.47 2.40 2.26
1.39 1.49 1.23 1.05 1.21 1.30 1.29 1.27 1.33 1.36 1.18 1.08 1.00 1.01 1.04 0.99 0.91 0.83 0.84 0.86 0.92 1.08 1.18 1.22 1.33 1.56 1.83 1.88 1.93 2.05 2.20 2.41 2.56 2.63 2.76 2.89 3.04 3.04 3.05 2.98 2.73 2.55 2.52 2.44
1.53 1.63 1.41 1.34 1.34 1.37 1.35 1.29 1.31 1.41 1.53 1.51 1.25 1.10 1.11 1.07 0.98 0.97 1.02 0.99 1.02 1.13 1.28 1.46 1.58 1.76 2.01 2.07 2.20 2.27 2.31 2.44 2.54 2.64 2.76 2.93 3.05 2.99 2.93 2.86 2.81 2.74 2.69 2.63
1.95 1.92 1.74 1.60 1.63 1.72 1.60 1.46 1.50 1.52 1.57 1.63 1.34 1.12 1.08 1.15 1.13 1.12 1.21 1.24 1.23 1.28 1.40 1.63 1.79 1.94 2.02 2.07 2.28 2.46 2.44 2.48 2.58 2.60 2.63 2.75 2.83 2.92 2.86 2.82 2.84 2.85 2.81 2.80
2.19 2.00 2.07 1.91 1.61 1.69 1.80 1.65 1.66 1.62 1.54 1.41 1.31 1.24 1.27 1.29 1.28 1.28 1.38 1.41 1.40 1.38 1.48 1.66 1.83 2.02 2.14 2.28 2.42 2.55 2.59 2.50 2.54 2.58 2.60 2.62 2.60 2.50 2.51 2.47 2.41 2.32 2.39 2.44
1.78 1.68 1.82 1.81 1.72 1.74 1.92 1.80 1.56 1.50 1.49 1.48 1.42 1.31 1.32 1.33 1.27 1.32 1.39 1.40 1.43 1.48 1.51 1.60 1.74 1.97 2.21 2.44 2.65 2.79 2.77 2.73 2.71 2.79 2.84 2.80 2.78 2.70 2.63 2.54 2.36 2.13 1.99 1.98
1.72 1.74 1.84 1.91 1.98 1.89 1.90 1.79 1.55 1.41 1.37 1.43 1.47 1.36 1.30 1.32 1.31 1.39 1.49 1.42 1.38 1.45 1.56 1.61 1.66 1.86 2.11 2.33 2.58 2.77 2.77 2.82 2.81 2.79 2.85 2.87 2.83 2.80 2.71 2.57 2.46 2.26 1.99 1.85
1.85 1.91 2.02 2.02 2.05 2.00 1.94 1.80 1.78 1.58 1.43 1.41 1.47 1.47 1.43 1.41 1.43 1.40 1.41 1.32 1.26 1.31 1.42 1.60 1.71 1.78 1.94 2.03 2.15 2.37 2.50 2.59 2.64 2.62 2.59 2.65 2.73 2.70 2.61 2.50 2.37 2.21 1.95 1.85
1.89 1.96 1.97 1.98 2.03 2.02 1.96 1.89 1.80 1.64 1.51 1.55 1.59 1.47 1.46 1.48 1.43 1.35 1.30 1.34 1.40 1.43 1.47 1.63 1.69 1.78 1.98 2.13 2.25 2.34 2.43 2.53 2.51 2.43 2.31 2.26 2.28 2.33 2.29 2.29 2.25 2.16 2.03 1.89
2.04 2.09 2.05 2.05 1.97 1.94 1.99 2.00 1.87 1.68 1.55 1.53 1.58 1.54 1.40 1.30 1.28 1.27 1.25 1.24 1.29 1.37 1.49 1.64 1.68 1.65 1.85 2.16 2.34 2.35 2.29 2.26 2.30 2.23 2.10 2.02 2.07 2.14 2.23 2.27 2.20 2.08 1.97 1.89
1.99 1.96 1.92 1.96 1.95 1.90 1.89 1.88 1.92 1.79 1.61 1.53 1.48 1.49 1.49 1.40 1.25 1.17 1.16 1.20 1.24 1.24 1.28 1.41 1.52 1.57 1.67 1.87 2.10 2.19 2.19 2.09 1.99 1.95 1.96 1.93 1.90 1.96 2.02 2.02 1.91 1.81 1.73 1.60
1.82 1.78 1.76 1.73 1.82 1.89 1.90 1.84 1.87 1.83 1.68 1.63 1.63 1.61 1.57 1.54 1.38 1.26 1.20 1.22 1.36 1.43 1.33 1.36 1.53 1.50 1.59 1.74 1.91 1.94 2.02 2.06 1.97 1.82 1.81 1.91 1.81 1.77 1.73 1.67 1.61 1.54 1.44 1.40
1.79 1.74 1.75 1.84 1.93 2.05 2.11 1.95 1.78 1.78 1.80 1.74 1.73 1.72 1.65 1.62 1.55 1.48 1.43 1.39 1.51 1.61 1.57 1.53 1.43 1.41 1.54 1.80 1.93 1.86 1.88 1.93 1.90 1.81 1.78 1.78 1.72 1.66 1.52 1.48 1.47 1.46 1.41 1.41
1.91 1.85 1.89 1.94 1.91 2.00 2.10 1.97 1.74 1.72 1.71 1.71 1.71 1.71 1.66 1.65 1.61 1.65 1.71 1.64 1.53 1.53 1.47 1.51 1.41 1.40 1.44 1.66 1.79 1.78 1.75 1.74 1.76 1.74 1.73 1.74 1.69 1.62 1.52 1.51 1.49 1.43 1.36 1.31
2.07 1.94 1.90 1.92 1.80 1.78 1.91 1.92 1.67 1.54 1.53 1.59 1.62 1.58 1.59 1.61 1.65 1.67 1.65 1.67 1.63 1.63 1.43 1.38 1.40 1.43 1.43 1.47 1.51 1.68 1.74 1.67 1.61 1.55 1.55 1.53 1.55 1.57 1.50 1.43 1.38 1.25 1.17 1.14
2.02 1.90 1.76 1.76 1.76 1.72 1.68 1.63 1.53 1.48 1.52 1.58 1.65 1.73 1.74 1.65 1.63 1.80 1.80 1.56 1.50 1.47 1.37 1.36 1.36 1.29 1.21 1.23 1.38 1.52 1.62 1.62 1.60 1.50 1.45 1.41 1.35 1.34 1.32 1.27 1.20 1.14 1.11 1.10
1.70 1.75 1.69 1.62 1.66 1.64 1.63 1.59 1.53 1.47 1.47 1.55 1.62 1.74 1.86 1.87 1.79 1.74 1.73 1.67 1.49 1.32 1.19 1.18 1.13 1.07 1.05 1.05 1.23 1.37 1.49 1.50 1.48 1.38 1.29 1.26 1.16 1.13 1.16 1.14 1.09 1.08 1.06 1.02
1.46 1.42 1.48 1.55 1.57 1.64 1.63 1.56 1.51 1.42 1.44 1.52 1.53 1.64 1.83 1.93 1.96 1.82 1.57 1.39 1.32 1.21 1.09 1.07 1.09 1.09 1.03 1.04 1.18 1.34 1.44 1.45 1.44 1.35 1.22 1.17 1.08 1.04 1.07 1.08 1.05 1.01 0.96 0.93
1.45 1.41 1.49 1.56 1.53 1.58 1.58 1.56 1.60 1.57 1.59 1.67 1.65 1.65 1.69 1.62 1.58 1.55 1.48 1.36 1.25 1.20 1.10 1.08 1.09 1.06 1.03 1.14 1.23 1.31 1.37 1.35 1.34 1.27 1.14 1.08 0.99 0.98 1.04 1.05 1.00 0.98 0.90 0.85
1.47 1.48 1.54 1.61 1.65 1.63 1.61 1.61 1.64 1.68 1.78 1.91 2.05 1.98 1.88 1.77 1.69 1.53 1.38 1.32 1.24 1.18 1.19 1.18 1.09 1.01 1.03 1.15 1.25 1.30 1.30 1.27 1.17 1.10 1.09 1.04 0.98 0.98 1.02 0.98 0.91 0.87 0.81 0.78